2E0SQA Weather Reports


time (UTC)temp
C
wind
direction
speed
KPH
gust
KPH
rain 1hr
cm
rain 24hr
cm
rain mn
cm
humidity
%
barometer
mb
20260507192535 11 240 0.0 0.0 0.03 0.03 0.03 83 1013.2
20260507191814 11 240 0.0 0.0 0.03 0.03 0.03 82 1013.1
20260507191313 11 240 0.0 0.0 0.03 0.03 0.03 81 1013.1
20260507191036 12 240 0.0 0.0 0.03 0.03 0.03 80 1013.1
20260507190530 12 240 0.0 0.0 0.03 0.03 0.03 79 1013.1
20260507185810 12 240 0.0 0.0 0.03 0.03 0.03 78 1013.1
20260507185311 12 212 0.0 0.0 0.03 0.03 0.03 77 1013.1
20260507184804 12 214 0.0 0.0 0.03 0.03 0.03 76 1013.1
20260507184302 12 213 0.0 0.0 0.00 0.00 0.00 74 1013.1
20260507183803 12 189 0.0 0.0 0.00 0.00 0.00 73 1013.1
20260507183522 12 227 0.0 0.0 0.00 0.00 0.00 72 1013.1
20260507182803 12 235 0.0 0.0 0.00 0.00 0.00 72 1013.0
20260507182302 13 105 0.0 0.0 0.00 0.00 0.00 71 1012.9
20260507182021 13 245 0.0 0.0 0.00 0.00 0.00 71 1012.9
20260507181301 13 226 0.0 0.0 0.00 0.00 0.00 70 1012.9
20260507180800 13 248 0.0 0.0 0.00 0.00 0.00 69 1012.8
20260507180258 13 228 0.0 0.0 0.00 0.00 0.00 69 1012.8
20260507175758 13 215 0.0 4.8 0.00 0.00 0.00 67 1012.8
20260507175300 13 219 0.0 4.8 0.00 0.00 0.00 63 1012.8
20260507175023 14 266 0.0 0.0 0.00 0.00 0.00 61 1012.7
20260507174301 14 129 0.0 0.0 0.00 0.00 0.00 60 1012.7
20260507173759 14 270 0.0 0.0 0.00 0.00 0.00 60 1012.7
20260507173300 14 212 0.0 0.0 0.00 0.00 0.00 60 1012.7
20260507172759 14 179 0.0 0.0 0.00 0.00 0.00 60 1012.7
20260507172258 14 329 0.0 0.0 0.00 0.00 0.00 60 1012.7
20260507171759 14 78 0.0 0.0 0.00 0.00 0.00 60 1012.7
20260507171256 14 142 0.0 0.0 0.00 0.00 0.00 59 1012.7
20260507170754 14 195 0.0 0.0 0.00 0.00 0.00 59 1012.7
20260507170255 14 165 0.0 0.0 0.00 0.00 0.00 58 1012.7
20260507165755 14 295 0.0 0.0 0.00 0.00 0.00 58 1012.7
20260507165739 14 255 0.0 0.0 0.00 0.00 0.00 58 1012.7
20260507164755 14 135 0.0 0.0 0.00 0.00 0.00 58 1012.7
20260507164254 14 336 0.0 1.6 0.00 0.00 0.00 58 1012.7
20260507164038 15 331 0.0 1.6 0.00 0.00 0.00 57 1012.7
20260507163253 15 166 0.0 1.6 0.00 0.00 0.00 57 1012.7
20260507162753 15 132 0.0 1.6 0.00 0.00 0.00 58 1012.6
20260507162253 15 34 0.0 1.6 0.00 0.00 0.00 58 1012.5
20260507161753 15 195 0.0 1.6 0.00 0.00 0.00 58 1012.6
20260507161248 15 190 0.0 1.6 0.00 0.00 0.00 57 1012.6
20260507160749 15 151 0.0 0.0 0.00 0.00 0.00 57 1012.7
20260507160327 15 160 0.0 0.0 0.00 0.00 0.00 56 1012.7
20260507160249 15 163 0.0 0.0 0.00 0.00 0.00 56 1012.7
20260507155247 15 162 0.0 1.6 0.00 0.00 0.00 56 1012.7
20260507154746 15 181 0.0 1.6 0.00 0.00 0.00 57 1012.7
20260507154248 14 197 0.0 0.0 0.00 0.00 0.00 58 1012.8
20260507153747 14 190 0.0 0.0 0.00 0.00 0.00 59 1012.8
20260507153245 14 163 0.0 0.0 0.00 0.00 0.00 59 1012.8
20260507152747 14 190 0.0 1.6 0.00 0.00 0.00 58 1012.8
20260507152247 14 146 0.0 1.6 0.00 0.00 0.00 58 1012.9
20260507151748 14 169 0.0 1.6 0.00 0.00 0.00 58 1012.9
20260507151244 14 87 0.0 4.8 0.00 0.00 0.00 58 1012.9
20260507151025 15 160 0.0 4.8 0.00 0.00 0.00 57 1013.0
20260507150529 15 155 0.0 1.6 0.00 0.00 0.00 57 1013.0
20260507145742 15 190 0.0 1.6 0.00 0.00 0.00 56 1013.0
20260507145256 15 127 0.0 0.0 0.00 0.00 0.00 54 1013.0
20260507144740 15 200 0.0 0.0 0.00 0.00 0.00 53 1013.0
20260507144236 15 160 0.0 0.0 0.00 0.00 0.00 53 1013.0
20260507143736 15 153 0.0 1.6 0.00 0.00 0.00 53 1013.2
20260507143237 15 167 0.0 1.6 0.00 0.00 0.00 54 1013.2
20260507142737 15 136 0.0 1.6 0.00 0.00 0.00 54 1013.3
20260507142237 16 135 0.0 3.2 0.00 0.00 0.00 54 1013.4
20260507141735 16 117 0.0 3.2 0.00 0.00 0.00 55 1013.4
20260507141237 15 153 0.0 1.6 0.00 0.00 0.00 54 1013.4
20260507140733 15 170 0.0 1.6 0.00 0.00 0.00 54 1013.4
20260507140232 15 176 0.0 1.6 0.00 0.00 0.00 53 1013.4
20260507135732 15 128 0.0 1.6 0.00 0.00 0.00 54 1013.5
20260507135230 15 81 0.0 1.6 0.00 0.00 0.00 54 1013.6
20260507134731 15 190 0.0 1.6 0.00 0.00 0.00 56 1013.6
20260507134231 15 148 0.0 0.0 0.00 0.00 0.00 55 1013.6
20260507133728 15 188 0.0 0.0 0.00 0.00 0.00 57 1013.7
20260507133228 15 188 0.0 0.0 0.00 0.00 0.00 56 1013.7
20260507132951 15 200 0.0 1.6 0.00 0.00 0.00 56 1013.8
20260507132229 15 129 0.0 1.6 0.00 0.00 0.00 56 1013.7
20260507131728 15 153 0.0 0.0 0.00 0.00 0.00 57 1013.7
20260507131228 15 122 0.0 1.6 0.00 0.00 0.00 57 1013.8
20260507130726 15 98 0.0 1.6 0.00 0.00 0.00 58 1013.8
20260507130226 15 177 0.0 3.2 0.00 0.00 0.00 58 1013.8
20260507125726 15 249 0.0 3.2 0.00 0.00 0.00 58 1013.9
20260507125452 15 180 0.0 0.0 0.00 0.00 0.00 59 1014.0
20260507124726 14 190 0.0 0.0 0.00 0.00 0.00 60 1013.9
20260507124228 15 167 0.0 0.0 0.00 0.00 0.00 59 1014.0
20260507123728 15 283 0.0 0.0 0.00 0.00 0.00 61 1014.0
20260507123227 14 162 0.0 0.0 0.00 0.00 0.00 61 1014.0
20260507122724 14 145 0.0 0.0 0.00 0.00 0.00 61 1014.0
20260507122225 14 206 0.0 1.6 0.00 0.00 0.00 62 1014.0
20260507121725 14 146 0.0 1.6 0.00 0.00 0.00 63 1014.1
20260507121443 13 155 0.0 1.6 0.00 0.00 0.00 67 1014.1
20260507120725 13 158 0.0 1.6 0.00 0.00 0.00 66 1014.1
20260507120223 13 262 0.0 0.0 0.00 0.00 0.00 68 1014.2
20260507115723 13 127 0.0 0.0 0.00 0.00 0.00 70 1014.2
20260507115222 12 158 0.0 0.0 0.00 0.00 0.00 70 1014.2
20260507114722 12 211 0.0 0.0 0.00 0.00 0.00 72 1014.3
20260507114221 12 135 0.0 1.6 0.00 0.00 0.00 73 1014.2
20260507113720 11 152 0.0 1.6 0.00 0.00 0.00 73 1014.3
20260507113221 11 197 0.0 1.6 0.00 0.00 0.00 74 1014.4
20260507112714 11 146 0.0 1.6 0.00 0.00 0.00 74 1014.4
20260507112214 11 319 0.0 0.0 0.00 0.00 0.00 76 1014.5
20260507111714 11 191 0.0 0.0 0.00 0.00 0.00 77 1014.4
20260507111215 11 169 0.0 1.6 0.00 0.00 0.00 77 1014.4
20260507110715 10 259 0.0 1.6 0.00 0.00 0.00 78 1014.5
20260507110214 10 190 0.0 0.0 0.00 0.00 0.00 78 1014.5
20260507105714 10 199 0.0 0.0 0.00 0.00 0.00 79 1014.5
20260507105215 10 195 0.0 0.0 0.00 0.00 0.00 79 1014.6
20260507104714 10 187 0.0 0.0 0.00 0.00 0.00 79 1014.7
20260507104650 10 236 0.0 1.6 0.00 0.00 0.00 79 1014.7
20260507103711 10 205 0.0 1.6 0.00 0.00 0.00 80 1014.7
20260507103210 10 311 0.0 0.0 0.00 0.00 0.00 80 1014.7
20260507102714 9 108 0.0 1.6 0.00 0.00 0.00 81 1014.7
20260507102231 9 168 0.0 1.6 0.00 0.00 0.00 81 1014.7
20260507101710 9 138 0.0 0.0 0.00 0.00 0.00 82 1014.7
20260507101224 9 163 0.0 0.0 0.00 0.00 0.00 82 1014.7
20260507100712 9 122 0.0 0.0 0.00 0.00 0.00 82 1014.7
20260507100210 8 158 0.0 1.6 0.00 0.00 0.00 83 1014.7
20260507095933 8 158 0.0 1.6 0.00 0.00 0.00 83 1014.7
20260507095206 8 153 0.0 1.6 0.00 0.00 0.00 83 1014.7
20260507094928 8 166 0.0 1.6 0.00 0.00 0.00 83 1014.7
20260507094206 8 155 0.0 1.6 0.00 0.00 0.00 83 1014.7
20260507093706 8 193 0.0 1.6 0.00 0.00 0.00 84 1014.7
20260507093206 8 179 0.0 0.0 0.00 0.00 0.00 84 1014.7
20260507092710 8 162 0.0 0.0 0.00 0.00 0.00 85 1014.7
20260507092208 8 162 0.0 0.0 0.00 0.00 0.00 85 1014.7
20260507091708 8 159 0.0 3.2 0.00 0.00 0.00 85 1014.8
20260507091206 8 133 0.0 3.2 0.00 0.00 0.00 85 1014.7
20260507090708 8 152 0.0 0.0 0.00 0.00 0.00 86 1014.7
20260507090207 8 190 0.0 0.0 0.00 0.00 0.00 86 1014.7
20260507085706 8 172 0.0 0.0 0.00 0.00 0.00 86 1014.7
20260507085207 7 129 0.0 0.0 0.00 0.00 0.00 86 1014.6
20260507084706 7 143 0.0 0.0 0.00 0.00 0.00 87 1014.6
20260507084206 7 190 0.0 0.0 0.00 0.00 0.00 87 1014.6
20260507083706 7 165 0.0 0.0 0.00 0.00 0.00 87 1014.6
20260507083434 7 150 0.0 1.6 0.00 0.00 0.00 87 1014.6
20260507082703 7 106 0.0 1.6 0.00 0.00 0.00 88 1014.7
20260507082202 7 183 0.0 0.0 0.00 0.00 0.00 88 1014.6
20260507081703 7 115 0.0 0.0 0.00 0.00 0.00 88 1014.6
20260507081204 7 162 0.0 0.0 0.00 0.00 0.00 88 1014.6
20260507080926 7 154 0.0 0.0 0.00 0.00 0.00 88 1014.6
20260507080201 7 155 0.0 0.0 0.00 0.00 0.00 88 1014.6
20260507075703 7 204 0.0 0.0 0.00 0.00 0.00 88 1014.7
20260507075203 7 208 0.0 0.0 0.00 0.00 0.00 88 1014.6
20260507074701 7 145 0.0 1.6 0.00 0.00 0.00 88 1014.7
20260507074428 7 160 0.0 1.6 0.00 0.00 0.00 88 1014.7
20260507073703 7 183 0.0 0.0 0.00 0.00 0.00 88 1014.6
20260507073202 7 143 0.0 0.0 0.00 0.00 0.00 88 1014.6
20260507072703 7 200 0.0 0.0 0.00 0.00 0.00 88 1014.5
20260507072203 7 179 0.0 0.0 0.00 0.00 0.00 88 1014.6
20260507071703 7 190 0.0 0.0 0.00 0.00 0.00 88 1014.5
20260507071204 7 186 0.0 0.0 0.00 0.00 0.00 88 1014.5
20260507070703 7 167 0.0 0.0 0.00 0.00 0.00 88 1014.5
20260507070203 7 122 0.0 0.0 0.00 0.00 0.00 88 1014.5
20260507065702 7 166 0.0 0.0 0.00 0.00 0.00 88 1014.5
20260507065203 7 159 0.0 0.0 0.00 0.00 0.00 88 1014.4
20260507064705 7 159 0.0 0.0 0.00 0.00 0.00 89 1014.4
20260507064204 7 162 0.0 1.6 0.00 0.00 0.00 89 1014.4
20260507063702 7 150 0.0 1.6 0.00 0.00 0.00 89 1014.4
20260507063203 7 156 0.0 0.0 0.00 0.00 0.00 89 1014.4
20260507062702 7 192 0.0 0.0 0.00 0.00 0.00 89 1014.4
20260507062202 6 183 0.0 0.0 0.00 0.00 0.00 89 1014.4
20260507061703 6 160 0.0 0.0 0.00 0.00 0.00 89 1014.4
20260507061432 6 117 0.0 0.0 0.00 0.00 0.00 89 1014.4
20260507060921 6 212 0.0 0.0 0.00 0.00 0.00 89 1014.4
20260507060202 6 219 0.0 0.0 0.00 0.00 0.00 89 1014.4
20260507055703 6 176 0.0 1.6 0.00 0.00 0.00 89 1014.4
20260507055203 6 193 0.0 1.6 0.00 0.00 0.00 89 1014.3
20260507054702 6 198 0.0 1.6 0.00 0.00 0.00 89 1014.3
20260507054200 6 143 0.0 3.2 0.00 0.00 0.00 88 1014.3
20260507053658 6 199 0.0 3.2 0.00 0.00 0.00 89 1014.3
20260507053430 6 164 0.0 1.6 0.00 0.00 0.00 89 1014.3
20260507052658 6 162 0.0 0.0 0.00 0.00 0.00 89 1014.3
20260507052158 6 185 0.0 0.0 0.00 0.00 0.00 88 1014.3
20260507051658 6 85 0.0 0.0 0.00 0.00 0.00 88 1014.3
20260507051159 6 146 0.0 1.6 0.00 0.00 0.00 88 1014.3
20260507050658 6 205 0.0 1.6 0.00 0.00 0.00 89 1014.2
20260507050200 6 136 0.0 3.2 0.00 0.00 0.00 89 1014.2
20260507045655 6 156 0.0 3.2 0.00 0.00 0.00 89 1014.2
20260507045156 6 184 0.0 1.6 0.00 0.00 0.00 89 1014.2
20260507044919 6 115 0.0 0.0 0.00 0.00 0.00 89 1014.2
20260507044157 6 140 0.0 0.0 0.00 0.00 0.00 89 1014.2
20260507043655 6 208 0.0 0.0 0.00 0.00 0.00 89 1014.2
20260507043155 6 155 0.0 0.0 0.00 0.00 0.00 89 1014.3
20260507042655 6 163 0.0 0.0 0.00 0.00 0.00 89 1014.2
20260507042155 6 148 0.0 1.6 0.00 0.00 0.00 89 1014.3
20260507041654 6 159 0.0 1.6 0.00 0.00 0.00 89 1014.3
20260507041148 6 177 0.0 0.0 0.00 0.00 0.00 89 1014.2
20260507040645 6 147 0.0 0.0 0.00 0.00 0.00 89 1014.2
20260507040135 6 136 0.0 0.0 0.00 0.00 0.00 89 1014.2
20260507035631 6 129 0.0 0.0 0.00 0.00 0.00 89 1014.2
20260507035124 6 156 0.0 0.0 0.00 0.00 0.00 89 1014.3
20260507034618 6 174 0.0 0.0 0.00 0.00 0.00 89 1014.3
20260507034111 6 155 0.0 0.0 0.00 0.00 0.00 89 1014.3
20260507033604 6 160 0.0 0.0 0.00 0.00 0.00 89 1014.3
20260507033101 6 153 0.0 0.0 0.00 0.00 0.00 89 1014.3
20260507033020 6 136 0.0 0.0 0.00 0.00 0.00 88 1014.3
20260507032633 6 191 0.0 0.0 0.00 0.00 0.00 88 1014.3
20260507031542 6 187 0.0 0.0 0.00 0.00 0.00 88 1014.4
20260507031035 6 190 0.0 0.0 0.00 0.00 0.00 88 1014.3
20260507030531 6 141 0.0 0.0 0.00 0.00 0.00 88 1014.4
20260507030106 6 187 0.0 0.0 0.00 0.00 0.00 87 1014.4
20260507025517 6 164 0.0 0.0 0.00 0.00 0.00 87 1014.4
20260507025011 6 170 0.0 0.0 0.00 0.00 0.00 87 1014.4
20260507024504 6 210 0.0 0.0 0.00 0.00 0.00 87 1014.4
20260507023959 6 176 0.0 0.0 0.00 0.00 0.00 87 1014.4
20260507023453 6 160 0.0 0.0 0.00 0.00 0.00 86 1014.4
20260507022947 6 136 0.0 0.0 0.00 0.00 0.00 86 1014.4
20260507022440 6 200 0.0 0.0 0.00 0.00 0.00 86 1014.4
20260507021934 6 183 0.0 0.0 0.00 0.00 0.00 86 1014.4
20260507021429 6 167 0.0 0.0 0.00 0.00 0.00 85 1014.4
20260507020923 6 163 0.0 0.0 0.00 0.00 0.00 85 1014.3
20260507020645 6 136 0.0 0.0 0.00 0.00 0.00 85 1014.3
20260507015909 6 186 0.0 0.0 0.00 0.00 0.00 85 1014.3
20260507015404 6 170 0.0 1.6 0.00 0.00 0.00 85 1014.3
20260507014858 7 119 0.0 1.6 0.00 0.00 0.00 85 1014.3
20260507014354 7 160 0.0 0.0 0.00 0.00 0.00 85 1014.4
20260507013847 7 197 0.0 0.0 0.00 0.00 0.00 85 1014.4
20260507013341 7 122 0.0 0.0 0.00 0.00 0.00 85 1014.4
20260507012834 7 166 0.0 0.0 0.00 0.00 0.00 85 1014.4
20260507012822 7 149 0.0 0.0 0.00 0.00 0.00 85 1014.4
20260507011823 7 176 0.0 1.6 0.00 0.00 0.00 84 1014.4
20260507011316 7 131 0.0 1.6 0.00 0.00 0.00 84 1014.4
20260507010811 7 146 0.0 1.6 0.00 0.00 0.00 84 1014.5
20260507010305 7 183 0.0 1.6 0.00 0.00 0.00 84 1014.6
20260507010107 7 117 0.0 0.0 0.00 0.00 0.00 84 1014.6
20260507005517 7 156 0.0 0.0 0.00 0.00 0.00 84 1014.6
20260507004746 7 172 0.0 0.0 0.00 0.00 0.00 83 1014.7
20260507004457 7 153 0.0 0.0 0.00 0.00 0.00 83 1014.6
20260507003734 7 152 0.0 1.6 0.00 0.00 0.00 83 1014.7
20260507003229 7 160 0.0 0.0 0.00 0.00 0.00 83 1014.7
20260507002722 7 143 0.0 1.6 0.00 0.00 0.00 83 1014.7
20260507002216 7 170 0.0 0.0 0.00 0.00 0.00 83 1014.8
20260507001711 7 126 0.0 0.0 0.00 0.00 0.00 82 1014.8
20260507001204 7 190 0.0 0.0 0.00 0.00 0.00 82 1014.8
20260507000658 7 172 0.0 0.0 0.00 0.00 0.00 82 1014.8
20260507000153 7 155 0.0 0.0 0.00 0.00 0.00 82 1014.8
20260506235645 7 139 0.0 0.0 0.00 0.00 0.00 82 1014.8
20260506235141 7 155 0.0 0.0 0.00 0.00 0.00 82 1014.7
20260506234633 7 105 0.0 0.0 0.00 0.00 0.00 82 1014.7
20260506234130 7 113 0.0 1.6 0.00 0.00 0.00 82 1014.7
20260506233622 7 187 0.0 1.6 0.00 0.00 0.00 82 1014.7
20260506233116 7 147 0.0 1.6 0.00 0.00 0.00 81 1014.6
20260506232610 7 108 0.0 1.6 0.00 0.00 0.00 81 1014.6
20260506232105 7 136 0.0 1.6 0.00 0.00 0.00 81 1014.6
20260506231559 8 75 0.0 0.0 0.00 0.00 0.00 81 1014.6
20260506231052 8 153 0.0 0.0 0.00 0.00 0.00 80 1014.5
20260506230546 8 177 0.0 0.0 0.00 0.00 0.00 80 1014.6
20260506230338 8 124 0.0 0.0 0.00 0.00 0.00 80 1014.6
20260506230107 8 160 0.0 0.0 0.00 0.00 0.00 80 1014.6
20260506225028 8 113 0.0 1.6 0.00 0.00 0.00 79 1014.5
20260506224523 8 187 0.0 1.6 0.00 0.00 0.00 79 1014.5
20260506224016 8 159 0.0 0.0 0.00 0.00 0.00 79 1014.5
20260506223511 8 140 0.0 0.0 0.00 0.00 0.00 79 1014.4
20260506223005 8 120 0.0 0.0 0.00 0.00 0.00 78 1014.4
20260506222718 8 208 0.0 0.0 0.00 0.00 0.00 78 1014.4
20260506221952 8 172 0.0 0.0 0.00 0.00 0.00 78 1014.4
20260506221447 8 123 0.0 0.0 0.00 0.00 0.00 77 1014.4
20260506220940 8 123 0.0 0.0 0.00 0.00 0.00 77 1014.4
20260506220434 8 112 0.0 0.0 0.00 0.00 0.00 77 1014.3
20260506215930 8 112 0.0 0.0 0.00 0.00 0.00 77 1014.2
20260506215422 8 152 0.0 0.0 0.00 0.00 0.00 77 1014.2
20260506214916 8 101 0.0 0.0 0.00 0.00 0.00 76 1014.2
20260506214409 8 190 0.0 0.0 0.00 0.00 0.00 76 1014.2
20260506213904 8 105 0.0 0.0 0.00 0.00 0.00 76 1014.2
20260506213400 8 146 0.0 0.0 0.00 0.00 0.00 76 1014.2
20260506212853 8 108 0.0 0.0 0.00 0.00 0.00 75 1014.2
20260506212346 9 124 0.0 0.0 0.00 0.00 0.00 75 1014.2
20260506211842 9 149 0.0 0.0 0.00 0.00 0.00 75 1014.2
20260506211335 9 131 0.0 0.0 0.00 0.00 0.00 74 1014.2
20260506211054 9 73 0.0 0.0 0.00 0.00 0.00 74 1014.2
20260506210324 9 140 0.0 0.0 0.00 0.00 0.00 74 1014.2
20260506205818 9 141 0.0 0.0 0.00 0.00 0.00 74 1014.2
20260506205311 9 136 0.0 0.0 0.00 0.00 0.00 73 1014.1
20260506204804 9 147 0.0 0.0 0.00 0.00 0.00 73 1014.1
20260506204258 9 131 0.0 0.0 0.00 0.00 0.00 72 1014.1
20260506203752 9 54 0.0 0.0 0.00 0.00 0.00 72 1014.1
20260506203243 9 136 0.0 0.0 0.00 0.00 0.00 72 1014.0
20260506202736 9 138 0.0 0.0 0.00 0.00 0.00 71 1014.0
20260506202231 9 174 0.0 0.0 0.00 0.00 0.00 71 1013.9
20260506201725 9 141 0.0 0.0 0.00 0.00 0.00 71 1013.9
20260506201219 9 113 0.0 0.0 0.00 0.00 0.00 70 1013.8
20260506200715 9 115 0.0 0.0 0.00 0.00 0.00 70 1013.7
20260506200205 10 131 0.0 0.0 0.00 0.00 0.00 69 1013.7
20260506195700 10 122 0.0 0.0 0.00 0.00 0.00 69 1013.6
20260506195422 10 113 0.0 0.0 0.00 0.00 0.00 68 1013.5
20260506194649 10 131 0.0 0.0 0.00 0.00 0.00 68 1013.4
20260506194142 10 103 0.0 0.0 0.00 0.00 0.00 67 1013.4
20260506193637 10 117 0.0 0.0 0.00 0.00 0.00 66 1013.4
20260506193351 10 186 0.0 0.0 0.00 0.00 0.00 66 1013.3